sat.trackr.live / text

‹ back to catalog

UNKNOWN

NORAD 85004

UNKNOWN UNKNOWN UNKNOWN

§ Identity

Operator
Country
Launch date
Launch site
Launch vehicle
Mass (kg)
RCS (m²)

External: N2YO · Heavens-Above

§ Orbital elements

Epoch: 2026-05-23T16:26:07.827648Z

Period
99.90 min
Inclination
98.4420°
Eccentricity
0.0047666
Mean motion
14.41495476 rev/d
Perigee alt
719.6 km
Apogee alt
787.6 km
Semi-major
7,131.7 km
B*
2.1980e-4
RAAN
117.5923°
Arg perigee
36.8787°
Mean anomaly
144.8064°
Rev number
65,422

§ Raw data

UNKNOWN1 85004U          26143.68481282  .00000679  00000+0  21980-3 0  99962 85004  98.4420 117.5923 0047666  36.8787 144.8064 14.41495476654223

JSON: /api/v1/satellites/85004 · /tle

For live sub-satellite position, see the globe view (requires WebGL).

§ Visibility from observer

Set your observer location to see the next 7 days of passes ≥ 10°. The values pass through the URL so the page stays shareable.

No JS? Fill the form by hand. The geolocation button needs JavaScript.